FW9289 Weather Reports


time (UTC)temp
C
wind
direction
speed
KPH
gust
KPH
rain 1hr
cm
rain 24hr
cm
rain mn
cm
humidity
%
barometer
mb
20260507044606 11 0 0.0 0.0 0.00 0.00 0.00 97 1021.6
20260507044043 11 0 0.0 0.0 0.00 0.00 0.00 97 1021.6
20260507043544 11 0 0.0 0.0 0.00 0.00 0.00 97 1021.6
20260507043101 11 0 0.0 0.0 0.00 0.00 0.00 97 1021.6
20260507042545 11 0 0.0 0.0 0.00 0.00 0.00 97 1021.6
20260507042049 11 0 0.0 0.0 0.00 0.00 0.00 97 1021.7
20260507041555 11 0 0.0 0.0 0.00 0.00 0.00 97 1021.7
20260507041041 11 0 0.0 0.0 0.00 0.00 0.00 97 1021.6
20260507040545 11 0 0.0 0.0 0.00 0.00 0.00 96 1021.6
20260507040052 11 0 0.0 0.0 0.00 0.00 0.00 96 1021.6
20260507035541 11 0 0.0 0.0 0.00 0.00 0.00 96 1021.5
20260507035043 11 0 0.0 0.0 0.00 0.00 0.00 96 1021.5
20260507034546 11 0 0.0 0.0 0.00 0.00 0.00 96 1021.4
20260507034041 11 0 0.0 0.0 0.00 0.00 0.00 96 1021.3
20260507033541 11 0 0.0 0.0 0.00 0.00 0.00 96 1021.2
20260507033047 11 0 0.0 0.0 0.00 0.00 0.00 96 1021.2
20260507032541 11 0 0.0 0.0 0.00 0.00 0.00 96 1021.1
20260507032041 11 0 0.0 0.0 0.00 0.00 0.00 96 1021.1
20260507031550 11 0 0.0 0.0 0.00 0.00 0.00 96 1021.0
20260507031041 11 0 0.0 0.0 0.00 0.00 0.00 96 1021.0
20260507030545 11 0 0.0 0.0 0.00 0.00 0.00 96 1021.1
20260507030050 11 0 0.0 0.0 0.00 0.00 0.00 96 1021.0
20260507025541 11 0 0.0 0.0 0.00 0.00 0.00 96 1020.9
20260507025047 11 0 0.0 0.0 0.00 0.00 0.00 96 1020.9
20260507024554 11 0 0.0 0.0 0.00 0.00 0.00 96 1020.8
20260507024040 11 0 0.0 0.0 0.00 0.00 0.00 96 1020.8
20260507023541 11 0 0.0 0.0 0.00 0.00 0.00 96 1020.8
20260507023102 11 0 0.0 0.0 0.00 0.00 0.00 96 1020.9
20260507022544 11 0 0.0 0.0 0.00 0.00 0.00 96 1020.9
20260507022044 11 0 0.0 0.0 0.00 0.00 0.00 95 1020.7
20260507021551 11 0 0.0 0.0 0.00 0.00 0.00 95 1020.9
20260507021042 12 0 0.0 0.0 0.00 0.00 0.00 95 1020.9
20260507020542 12 0 0.0 0.0 0.00 0.00 0.00 95 1020.9
20260507020055 11 0 0.0 0.0 0.00 0.00 0.00 95 1020.9
20260507015545 12 0 0.0 0.0 0.00 0.00 0.00 95 1020.9
20260507015042 12 0 0.0 0.0 0.00 0.00 0.00 95 1020.9
20260507014556 11 0 0.0 0.0 0.00 0.00 0.00 95 1020.8
20260507014044 11 0 0.0 0.0 0.00 0.00 0.00 95 1020.8
20260507013545 11 0 0.0 0.0 0.00 0.00 0.00 95 1020.9
20260507013046 11 0 0.0 0.0 0.00 0.00 0.00 95 1020.8
20260507012546 11 0 0.0 0.0 0.00 0.00 0.00 95 1020.8
20260507012042 11 0 0.0 0.0 0.00 0.00 0.00 95 1020.8
20260507011551 11 0 0.0 3.2 0.00 0.00 0.00 95 1020.9
20260507011042 11 0 0.0 3.2 0.00 0.00 0.00 95 1020.9
20260507010541 11 0 0.0 3.2 0.00 0.00 0.00 95 1020.9
20260507010052 11 0 0.0 1.6 0.00 0.00 0.00 95 1021.0
20260507005542 11 0 0.0 0.0 0.00 0.00 0.00 95 1021.1
20260507005041 11 0 0.0 0.0 0.00 0.00 0.00 95 1021.3
20260507004554 11 0 0.0 1.6 0.00 0.00 0.00 94 1021.3
20260507004041 11 0 0.0 1.6 0.00 0.00 0.00 94 1021.4
20260507003542 11 92 0.0 1.6 0.00 0.00 0.00 94 1021.3
20260507003106 11 0 0.0 3.2 0.00 0.00 0.00 94 1021.3
20260507002545 11 0 0.0 3.2 0.00 0.00 0.00 93 1021.3
20260507002044 12 0 0.0 1.6 0.00 0.00 0.00 93 1021.4
20260507001612 12 0 0.0 1.6 0.00 0.00 0.00 93 1021.2
20260507001041 12 0 0.0 3.2 0.00 0.00 0.00 93 1021.0
20260507000543 12 0 0.0 3.2 0.00 0.00 0.00 92 1021.0
20260507000054 12 0 0.0 3.2 0.00 0.00 0.00 91 1021.1
20260506235544 12 28 0.0 1.6 0.00 0.00 0.00 91 1021.0
20260506235041 12 0 0.0 3.2 0.00 0.00 0.00 91 1020.9
20260506234556 12 0 0.0 3.2 0.00 0.00 0.00 90 1021.0
20260506234041 12 0 0.0 6.4 0.00 0.00 0.00 91 1021.0
20260506233544 12 0 1.6 6.4 0.00 0.00 0.00 90 1020.8
20260506233051 12 242 1.6 6.4 0.00 0.00 0.00 90 1020.8
20260506232543 12 0 0.0 4.8 0.00 0.00 0.00 90 1020.8
20260506232042 12 10 0.0 1.6 0.00 0.00 0.00 90 1020.7
20260506231554 12 0 0.0 3.2 0.00 0.00 0.00 89 1020.7
20260506231041 12 0 0.0 3.2 0.00 0.00 0.00 89 1020.7
20260506230541 13 207 0.0 1.6 0.00 0.00 0.00 89 1020.6
20260506225541 13 147 1.6 4.8 0.00 0.00 0.00 86 1020.7
20260506225042 13 237 0.0 4.8 0.00 0.00 0.00 87 1020.7
20260506224553 12 238 0.0 8.0 0.00 0.00 0.00 87 1020.8
20260506224042 12 0 1.6 12.9 0.00 0.00 0.00 87 1020.7
20260506223544 12 320 1.6 12.9 0.00 0.00 0.00 87 1020.8
20260506223058 13 265 1.6 6.4 0.00 0.00 0.00 86 1021.0
20260506222541 13 32 1.6 8.0 0.00 0.00 0.00 86 1020.8
20260506222042 13 0 1.6 11.3 0.00 0.00 0.00 86 1020.9
20260506221606 13 9 1.6 11.3 0.00 0.00 0.00 85 1020.8
20260506221041 13 258 1.6 8.0 0.00 0.00 0.00 85 1020.9
20260506220544 13 87 3.2 9.7 0.00 0.00 0.00 84 1020.8
20260506220049 13 307 3.2 11.3 0.00 0.00 0.00 83 1020.7
20260506215543 13 54 3.2 11.3 0.00 0.00 0.00 82 1020.8
20260506215040 14 175 1.6 12.9 0.00 0.00 0.00 81 1020.7
20260506214554 13 162 3.2 12.9 0.00 0.00 0.00 82 1020.7
20260506214042 13 334 3.2 12.9 0.00 0.00 0.00 82 1020.7
20260506213543 13 32 4.8 12.9 0.00 0.00 0.00 81 1020.8
20260506213053 14 118 3.2 12.9 0.00 0.00 0.00 81 1020.9
20260506212541 14 263 3.2 12.9 0.00 0.00 0.00 82 1020.8
20260506212042 14 309 3.2 12.9 0.00 0.00 0.00 80 1020.8
20260506211551 14 320 1.6 14.5 0.00 0.00 0.00 80 1020.9
20260506211042 14 327 3.2 14.5 0.00 0.00 0.00 80 1020.7
20260506210543 15 350 3.2 14.5 0.00 0.00 0.00 80 1020.7
20260506210100 15 255 4.8 14.5 0.00 0.00 0.00 78 1020.6
20260506205549 15 211 3.2 17.7 0.00 0.00 0.00 78 1020.5
20260506205043 15 277 3.2 17.7 0.00 0.00 0.00 78 1020.6
20260506204557 15 321 4.8 14.5 0.00 0.00 0.00 78 1020.5
20260506204041 15 94 1.6 6.4 0.00 0.00 0.00 80 1020.4
20260506203541 15 131 1.6 8.0 0.00 0.00 0.00 81 1020.5
20260506203119 15 266 3.2 8.0 0.00 0.00 0.00 80 1020.5
20260506202544 15 5 1.6 9.7 0.00 0.00 0.00 81 1020.5
20260506202044 15 234 1.6 11.3 0.00 0.00 0.00 80 1020.4
20260506201558 15 88 3.2 11.3 0.00 0.00 0.00 79 1020.4
20260506201049 16 213 1.6 9.7 0.00 0.00 0.00 77 1020.4
20260506200552 16 102 1.6 9.7 0.00 0.00 0.00 77 1020.4
20260506200056 16 94 3.2 11.3 0.00 0.00 0.00 79 1020.3
20260506195547 15 144 3.2 11.3 0.00 0.00 0.00 79 1020.4
20260506195044 16 301 1.6 11.3 0.00 0.00 0.00 79 1020.4
20260506194553 16 140 3.2 11.3 0.00 0.00 0.00 78 1020.3
20260506194044 16 63 0.0 8.0 0.00 0.00 0.00 78 1020.3
20260506193545 16 78 1.6 8.0 0.00 0.00 0.00 79 1020.2
20260506193103 16 0 1.6 6.4 0.00 0.00 0.00 79 1020.3
20260506192546 15 63 1.6 9.7 0.00 0.00 0.00 82 1020.4
20260506192045 15 0 1.6 11.3 0.00 0.00 0.00 81 1020.3
20260506191553 15 46 1.6 11.3 0.00 0.00 0.00 81 1020.4
20260506191046 15 134 1.6 6.4 0.00 0.00 0.00 80 1020.4
20260506190546 15 147 0.0 6.4 0.00 0.00 0.00 80 1020.3
20260506190056 15 242 1.6 4.8 0.00 0.00 0.00 80 1020.3
20260506185546 15 0 0.0 6.4 0.00 0.00 0.00 81 1020.3
20260506185045 15 107 0.0 6.4 0.00 0.00 0.00 81 1020.3
20260506184553 15 0 0.0 12.9 0.00 0.00 0.00 82 1020.2
20260506184046 15 307 1.6 12.9 0.00 0.00 0.00 81 1020.1
20260506183547 15 105 1.6 11.3 0.00 0.00 0.00 82 1020.1
20260506183100 14 0 0.0 4.8 0.00 0.00 0.00 84 1020.1
20260506182545 14 19 1.6 4.8 0.00 0.00 0.00 84 1020.2
20260506182047 13 329 0.0 4.8 0.00 0.00 0.00 85 1020.1
20260506181556 13 0 1.6 4.8 0.00 0.00 0.00 86 1020.1
20260506181046 13 0 0.0 4.8 0.00 0.00 0.00 86 1020.2
20260506180550 13 0 0.0 4.8 0.00 0.00 0.00 86 1020.3
20260506175545 13 348 1.6 8.0 0.00 0.00 0.00 87 1020.4
20260506175049 13 88 0.0 4.8 0.00 0.00 0.00 86 1020.4
20260506174556 13 0 0.0 6.4 0.00 0.00 0.00 85 1020.3
20260506174045 13 0 1.6 6.4 0.00 0.00 0.00 85 1020.4
20260506173545 14 138 0.0 9.7 0.00 0.00 0.00 85 1020.3
20260506173058 13 350 0.0 9.7 0.00 0.00 0.00 85 1020.2
20260506172544 13 102 0.0 9.7 0.00 0.00 0.00 84 1020.2
20260506172045 13 16 1.6 9.7 0.00 0.00 0.00 84 1020.1
20260506171559 13 109 1.6 6.4 0.00 0.00 0.00 85 1020.1
20260506171045 13 157 1.6 6.4 0.00 0.00 0.00 85 1020.0
20260506170546 13 244 1.6 11.3 0.00 0.00 0.00 85 1020.0
20260506170054 13 316 1.6 11.3 0.00 0.00 0.00 85 1019.8
20260506165543 13 57 0.0 4.8 0.00 0.00 0.00 86 1019.8
20260506165042 13 5 1.6 4.8 0.00 0.00 0.00 87 1019.7
20260506164605 13 0 0.0 4.8 0.00 0.00 0.00 87 1019.8
20260506164041 13 0 0.0 6.4 0.00 0.00 0.00 87 1019.8
20260506163541 13 0 0.0 6.4 0.00 0.00 0.00 87 1019.8
20260506163100 12 106 3.2 6.4 0.00 0.00 0.00 88 1019.7
20260506162545 12 119 1.6 6.4 0.00 0.00 0.00 88 1019.9
20260506162042 12 126 0.0 6.4 0.00 0.00 0.00 88 1019.8
20260506161550 12 71 1.6 6.4 0.00 0.00 0.00 88 1019.8
20260506161046 12 0 1.6 4.8 0.00 0.00 0.00 88 1020.0
20260506160544 12 273 1.6 4.8 0.00 0.00 0.00 88 1020.0
20260506160059 12 0 0.0 4.8 0.00 0.00 0.00 88 1020.0
20260506155542 12 0 0.0 0.0 0.00 0.00 0.00 89 1019.9
20260506155042 12 0 0.0 0.0 0.00 0.00 0.00 88 1019.8
20260506154554 12 0 0.0 0.0 0.00 0.00 0.00 89 1019.7
20260506154042 12 0 0.0 0.0 0.00 0.00 0.00 90 1019.8
20260506153546 12 0 0.0 0.0 0.00 0.00 0.00 91 1019.9
20260506153053 12 0 0.0 0.0 0.00 0.00 0.00 91 1020.0
20260506152541 12 0 0.0 1.6 0.00 0.00 0.00 91 1020.0
20260506152043 12 0 0.0 4.8 0.00 0.00 0.00 91 1020.1
20260506151556 12 0 0.0 4.8 0.00 0.00 0.00 90 1020.0
20260506151041 12 107 1.6 8.0 0.00 0.00 0.00 90 1020.1
20260506150544 12 269 0.0 8.0 0.00 0.00 0.00 90 1020.0
20260506150100 12 263 0.0 8.0 0.00 0.00 0.00 91 1019.9
20260506145540 12 0 0.0 3.2 0.00 0.00 0.00 92 1019.7
20260506145041 12 0 0.0 1.6 0.00 0.00 0.00 92 1019.5
20260506144550 12 0 0.0 1.6 0.00 0.00 0.00 92 1019.5
20260506144041 12 0 0.0 0.0 0.00 0.00 0.00 92 1019.6
20260506143542 11 0 0.0 3.2 0.00 0.00 0.00 92 1019.6
20260506143048 11 0 0.0 3.2 0.00 0.00 0.00 92 1019.7
20260506142541 11 0 0.0 4.8 0.00 0.00 0.00 92 1019.8
20260506142041 11 0 0.0 4.8 0.00 0.00 0.00 92 1019.9
20260506141552 11 270 0.0 9.7 0.00 0.00 0.00 93 1019.8
20260506141042 11 0 0.0 9.7 0.00 0.00 0.00 93 1019.8
20260506140541 11 84 0.0 3.2 0.00 0.00 0.00 93 1020.0
20260506140054 11 0 0.0 3.2 0.00 0.00 0.00 94 1019.9
20260506135542 11 0 0.0 3.2 0.00 0.00 0.00 93 1019.6
20260506135041 11 190 0.0 3.2 0.00 0.00 0.00 94 1019.6
20260506134552 11 0 0.0 3.2 0.00 0.00 0.00 94 1019.5
20260506134045 11 0 0.0 0.0 0.00 0.00 0.00 95 1019.4
20260506133541 11 0 0.0 0.0 0.00 0.00 0.00 95 1019.1
20260506133104 11 0 0.0 0.0 0.00 0.00 0.00 95 1019.3
20260506132541 11 0 0.0 0.0 0.00 0.00 0.00 95 1019.2
20260506132043 11 0 0.0 0.0 0.00 0.00 0.00 96 1019.4
20260506131606 11 0 0.0 0.0 0.00 0.00 0.00 96 1019.2
20260506131044 11 0 0.0 0.0 0.00 0.00 0.00 96 1019.3
20260506130542 11 0 0.0 0.0 0.00 0.00 0.00 96 1019.1
20260506130051 11 0 0.0 0.0 0.00 0.00 0.00 96 1019.1
20260506125541 11 0 0.0 0.0 0.00 0.00 0.00 96 1019.0
20260506125041 11 0 0.0 0.0 0.00 0.00 0.00 96 1018.9
20260506124550 11 0 0.0 0.0 0.00 0.00 0.00 96 1019.0
20260506124045 11 0 0.0 0.0 0.00 0.00 0.00 97 1019.0
20260506123543 11 0 0.0 0.0 0.00 0.00 0.00 97 1018.9
20260506123049 11 0 0.0 0.0 0.00 0.00 0.00 97 1018.9
20260506122541 11 0 0.0 0.0 0.00 0.00 0.00 97 1018.8
20260506122041 11 0 0.0 0.0 0.00 0.00 0.00 97 1018.7
20260506121557 11 0 0.0 0.0 0.00 0.00 0.00 97 1018.7
20260506121042 11 0 0.0 0.0 0.00 0.00 0.00 97 1018.6
20260506120542 11 0 0.0 0.0 0.00 0.00 0.00 97 1018.5
20260506120100 11 0 0.0 3.2 0.00 0.00 0.00 98 1018.6
20260506115542 11 0 0.0 3.2 0.00 0.00 0.00 97 1018.7
20260506115042 11 0 0.0 3.2 0.00 0.00 0.00 97 1018.7
20260506114546 11 0 0.0 4.8 0.00 0.00 0.00 97 1018.6
20260506114046 11 0 0.0 4.8 0.00 0.00 0.00 98 1018.5
20260506113541 11 0 0.0 0.0 0.00 0.00 0.00 98 1018.6
20260506113049 10 0 0.0 0.0 0.00 0.00 0.00 98 1018.7
20260506112545 10 0 0.0 0.0 0.00 0.00 0.00 98 1018.6
20260506112041 10 0 0.0 0.0 0.00 0.00 0.00 98 1018.6
20260506111548 10 0 0.0 0.0 0.00 0.00 0.00 98 1018.6
20260506111042 10 0 0.0 0.0 0.00 0.00 0.00 98 1018.6
20260506110542 10 0 0.0 0.0 0.00 0.00 0.00 98 1018.5
20260506110059 10 0 0.0 0.0 0.00 0.00 0.00 98 1018.4
20260506105542 10 0 0.0 0.0 0.00 0.00 0.00 98 1018.4
20260506105046 10 0 0.0 0.0 0.00 0.00 0.00 98 1018.4
20260506104611 10 0 0.0 0.0 0.00 0.00 0.00 98 1018.3
20260506104041 10 0 0.0 0.0 0.00 0.00 0.00 98 1018.3
20260506103544 10 0 0.0 0.0 0.00 0.00 0.00 98 1018.2
20260506103100 10 0 0.0 0.0 0.00 0.00 0.00 98 1018.1
20260506102549 10 0 0.0 0.0 0.00 0.00 0.00 98 1018.1
20260506102049 10 0 0.0 0.0 0.00 0.00 0.00 98 1018.0
20260506101554 10 0 0.0 0.0 0.00 0.00 0.00 98 1018.0
20260506101042 10 0 0.0 0.0 0.00 0.00 0.00 98 1017.8
20260506100544 10 0 0.0 0.0 0.00 0.00 0.00 98 1017.8
20260506100111 10 0 0.0 0.0 0.00 0.00 0.00 98 1017.8
20260506095542 10 0 0.0 0.0 0.00 0.00 0.00 98 1017.7
20260506095042 10 0 0.0 0.0 0.00 0.00 0.00 98 1017.8
20260506094601 10 0 0.0 0.0 0.00 0.00 0.00 98 1017.8
20260506094041 10 0 0.0 0.0 0.00 0.00 0.00 98 1017.8
20260506093544 10 0 0.0 0.0 0.00 0.00 0.00 98 1017.8
20260506093055 10 0 0.0 0.0 0.00 0.00 0.00 98 1017.7
20260506092545 10 0 0.0 0.0 0.00 0.00 0.00 98 1017.8
20260506092045 10 0 0.0 0.0 0.00 0.00 0.00 98 1017.6
20260506091552 10 0 0.0 0.0 0.00 0.00 0.00 98 1017.7
20260506091043 10 0 0.0 0.0 0.00 0.00 0.00 98 1017.7
20260506090546 10 0 0.0 0.0 0.00 0.00 0.00 98 1017.7
20260506090053 10 0 0.0 0.0 0.00 0.00 0.00 98 1017.6
20260506085545 9 0 0.0 0.0 0.00 0.00 0.00 98 1017.6
20260506085045 9 0 0.0 0.0 0.00 0.00 0.00 97 1017.5
20260506084619 9 0 0.0 0.0 0.00 0.00 0.00 98 1017.5
20260506084045 9 0 0.0 0.0 0.00 0.00 0.00 97 1017.5
20260506083545 9 0 0.0 0.0 0.00 0.00 0.00 97 1017.4
20260506083054 9 0 0.0 0.0 0.00 0.00 0.00 97 1017.5
20260506082544 9 0 0.0 0.0 0.00 0.00 0.00 98 1017.5
20260506082045 9 0 0.0 0.0 0.00 0.00 0.00 98 1017.6
20260506081559 9 0 0.0 0.0 0.00 0.00 0.00 98 1017.6
20260506081044 9 0 0.0 0.0 0.00 0.00 0.00 97 1017.6
20260506080542 9 0 0.0 0.0 0.00 0.00 0.00 97 1017.6
20260506073050 8 0 0.0 0.0 0.00 0.00 0.00 97 1017.5
20260506072541 8 0 0.0 0.0 0.00 0.00 0.00 97 1017.5
20260506072042 8 0 0.0 0.0 0.00 0.00 0.00 97 1017.5
20260506071558 8 0 0.0 0.0 0.00 0.00 0.00 97 1017.4
20260506071041 8 0 0.0 0.0 0.00 0.00 0.00 97 1017.4
20260506070541 8 0 0.0 0.0 0.00 0.00 0.00 97 1017.5
20260506062041 9 0 0.0 0.0 0.00 0.00 0.00 97 1016.9
20260506061549 9 0 0.0 0.0 0.00 0.00 0.00 97 1016.9
20260506061041 9 0 0.0 0.0 0.00 0.00 0.00 97 1017.0
20260506060542 9 0 0.0 0.0 0.00 0.00 0.00 96 1017.0
20260506051041 10 0 0.0 0.0 0.00 0.00 0.00 96 1016.7
20260506050542 10 0 0.0 0.0 0.00 0.00 0.00 96 1016.8
20260506045041 10 0 0.0 0.0 0.00 0.00 0.00 96 1016.7